Location: Kershaw
(34.5481°N, 80.5823°W)
Time: 13:45:55
(UTC+00:00)

Explorer 7 - Pass Details

Date: 04 October 2022
Orbit: 481 x 665 km, 50.3° (Epoch: 26 November)

Event Time Altitude Azimuth Distance (km) Brightness Sun altitude
Rises 16:17:17 0° 267° (W) 2,994 10.5 48.9°
Reaches altitude 10° 16:20:03 10° 281° (WNW) 2,086 9.7 49.1°
Maximum altitude 16:23:54 23° 334° (NNW) 1,395 8.7 49.4°
Drops below altitude 10° 16:27:44 10° 28° (NNE) 2,065 9.6 49.6°
Sets 16:30:28 0° 42° (NE) 2,956 10.3 49.8°
